Weather History for Truckee-Tahoe, CA

Change the Weather History Date:

Tuesday, December 17, 2013

  Actual Average Record
Temperature  
Mean Temperature 28 °F -  
Max Temperature 46 °F 41 °F 59 °F (1958)
Min Temperature 10 °F 15 °F -8 °F (1965)
Degree Days  
Heating Degree Days 37    
Moisture  
Dew Point 21 °F    
Average Humidity 82    
Maximum Humidity 100    
Minimum Humidity 50    
Precipitation  
Precipitation 0.00 in - - ()
Snow  
Snow 0.00 in - - ()
Snow Depth 4.00 in    
Sea Level Pressure  
Sea Level Pressure 30.33 in    
Wind  
Wind Speed 0 mph (SSE)    
Max Wind Speed 4 mph    
Max Gust Speed -    
Visibility 7 miles    
Events Fog    
Averages and records for this station are not official NWS values.
T = Trace of Precipitation, MM = Missing Value Source: NWS Daily Summary

Daily Weather History Graph

Daily Weather History Graph

Search for Another Location

Airport:

Trip Planner

Search our weather history database for the weather conditions in past years. The results will help you decide how hot, cold, wet, or windy it might be!

Date:

Astronomy

Dec. 17, 2013 Rise Set
Actual Time 7:14 AM PST 4:39 PM PST
Civil Twilight 6:44 AM PST 5:09 PM PST
Nautical Twilight 6:10 AM PST 5:42 PM PST
Astronomical Twilight 5:38 AM PST 6:15 PM PST
Moon 5:22 PM PST (12/17) 7:15 AM PST (12/17)
Length of Visible Light 10h 24m
Length of Day
9h 24m
Full, 100% of the Moon is Illuminated
Dec 17
Full
Dec 25
Last Quarter
Jan 1
New
Jan 7
First Quarter
Jan 15
Full

Hourly Weather History & Observations

Time (PST) Temp. Windchill Dew Point Humidity Pressure Visibility Wind Dir Wind Speed Gust Speed Precip Events Conditions
12:15 AM 21.2 °F - 19.4 °F 93% 30.44 in 10.0 mi Calm Calm - N/A   Clear
12:35 AM 17.6 °F - 14.0 °F 86% 30.44 in 0.5 mi Calm Calm - N/A Fog Light Freezing Fog
12:55 AM 17.6 °F - 17.6 °F 100% 30.44 in 0.8 mi Calm Calm - N/A   Mist
1:15 AM 17.6 °F - 14.0 °F 86% 30.44 in 7.0 mi Calm Calm - N/A   Clear
1:35 AM 19.4 °F - 17.6 °F 93% 30.44 in 1.0 mi Calm Calm - N/A   Mist
1:55 AM 15.8 °F - 14.0 °F 93% 30.44 in 0.5 mi Calm Calm - N/A Fog Light Freezing Fog
2:15 AM 17.6 °F - 15.8 °F 93% 30.44 in 0.8 mi Calm Calm - N/A   Mist
2:35 AM 14.0 °F - 12.2 °F 93% 30.44 in 0.5 mi Calm Calm - N/A Fog Light Freezing Fog
2:55 AM 17.6 °F - 14.0 °F 86% 30.44 in 0.5 mi Calm Calm - N/A Fog Light Freezing Fog
3:15 AM 12.2 °F - 10.4 °F 92% 30.42 in 0.5 mi Calm Calm - N/A Fog Light Freezing Fog
3:35 AM 17.6 °F - 14.0 °F 86% 30.42 in 10.0 mi Calm Calm - N/A   Scattered Clouds
3:55 AM 10.4 °F - 8.6 °F 92% 30.42 in 0.5 mi Calm Calm - N/A Fog Light Freezing Fog
4:15 AM 17.6 °F - 15.8 °F 93% 30.41 in 1.2 mi Calm Calm - N/A   Mostly Cloudy
4:35 AM 17.6 °F - 14.0 °F 86% 30.41 in 0.2 mi Calm Calm - N/A Fog Light Freezing Fog
4:55 AM 15.8 °F - 12.2 °F 86% 30.40 in 1.5 mi Calm Calm - N/A   Scattered Clouds
5:15 AM 12.2 °F - 10.4 °F 92% 30.40 in 0.2 mi Calm Calm - N/A Fog Light Freezing Fog
5:35 AM 12.2 °F - 10.4 °F 92% 30.40 in 0.2 mi Calm Calm - N/A Fog Light Freezing Fog
6:55 AM 12.2 °F - 10.4 °F 92% 30.40 in 2.5 mi Calm Calm - N/A Fog Light Freezing Fog
7:55 AM 14.0 °F - 12.2 °F 93% 30.34 in 10.0 mi Calm Calm - N/A Fog Patches of Fog
8:45 AM 15.8 °F - 14.0 °F 93% 30.40 in 10.0 mi Calm Calm - N/A   Mostly Cloudy
9:50 AM 21.2 °F - 21.2 °F 100% 30.40 in 10.0 mi Calm Calm - N/A   Mostly Cloudy
10:50 AM 28.4 °F - 26.6 °F 93% 30.38 in 10.0 mi Calm Calm - N/A   Mostly Cloudy
11:55 AM 35.6 °F - 26.6 °F 70% 30.34 in 10.0 mi Calm Calm - N/A   Mostly Cloudy
12:55 PM 37.4 °F - 26.6 °F 65% 30.31 in 10.0 mi Calm Calm - N/A   Mostly Cloudy
1:45 PM 42.8 °F - 28.4 °F 57% 30.28 in 10.0 mi Calm Calm - N/A   Mostly Cloudy
2:45 PM 46.4 °F - 28.4 °F 50% 30.27 in 10.0 mi Calm Calm - N/A   Mostly Cloudy
3:45 PM 44.6 °F - 30.2 °F 57% 30.27 in 10.0 mi Calm Calm - N/A   Mostly Cloudy
4:45 PM 41.0 °F - 28.4 °F 61% 30.26 in 10.0 mi Calm Calm - N/A   Mostly Cloudy
4:55 PM 42.8 °F - 28.4 °F 57% 30.26 in 10.0 mi Calm Calm - N/A   Clear
5:15 PM 37.4 °F 34.9 °F 28.4 °F 70% 30.26 in 10.0 mi SSW 3.5 mph - N/A   Clear
5:35 PM 35.6 °F - 28.4 °F 75% 30.26 in 10.0 mi Calm Calm - N/A   Clear
5:55 PM 37.4 °F - 28.4 °F 70% 30.26 in 10.0 mi Calm Calm - N/A   Clear
6:15 PM 33.8 °F - 28.4 °F 81% 30.26 in 10.0 mi Calm Calm - N/A   Clear
6:35 PM 33.8 °F 30.8 °F 28.4 °F 81% 30.26 in 10.0 mi ENE 3.5 mph - N/A   Clear
6:55 PM 32.0 °F - 26.6 °F 80% 30.26 in 10.0 mi Calm Calm - N/A   Clear
7:15 PM 32.0 °F - 26.6 °F 80% 30.26 in 10.0 mi Calm Calm - N/A   Clear
7:35 PM 30.2 °F - 24.8 °F 80% 30.26 in 10.0 mi Calm Calm - N/A   Clear
7:55 PM 30.2 °F - 24.8 °F 80% 30.26 in 10.0 mi Calm Calm - N/A   Clear
8:15 PM 28.4 °F 24.6 °F 24.8 °F 86% 30.26 in 10.0 mi South 3.5 mph - N/A   Clear
8:35 PM 28.4 °F - 23.0 °F 80% 30.26 in 10.0 mi Calm Calm - N/A   Clear
8:55 PM 28.4 °F - 23.0 °F 80% 30.26 in 10.0 mi Calm Calm - N/A   Clear
9:15 PM 28.4 °F - 23.0 °F 80% 30.26 in 10.0 mi Calm Calm - N/A   Clear
9:35 PM 28.4 °F - 23.0 °F 80% 30.26 in 10.0 mi Calm Calm - N/A   Clear
9:55 PM 28.4 °F - 23.0 °F 80% 30.25 in 10.0 mi Calm Calm - N/A   Clear
10:15 PM 28.4 °F - 23.0 °F 80% 30.25 in 10.0 mi Calm Calm - N/A   Clear
10:35 PM 26.6 °F - 23.0 °F 86% 30.25 in 10.0 mi Calm Calm - N/A   Clear
10:55 PM 26.6 °F - 23.0 °F 86% 30.25 in 10.0 mi Calm Calm - N/A   Clear
11:15 PM 26.6 °F - 23.0 °F 86% 30.24 in 10.0 mi Calm Calm - N/A   Clear
11:35 PM 23.0 °F - 21.2 °F 93% 30.23 in 10.0 mi Calm Calm - N/A   Clear
11:55 PM 26.6 °F - 21.2 °F 80% 30.23 in 10.0 mi Calm Calm - N/A   Clear